Skip Page Navigation
NASA JPL Caltech
NASA Logo - Jet Propulsion Laboratory + View the NASA Portal
+ Center for Near-Earth Object Studies
JPL Home Earth Solar System Stars & Galaxies Technology
JPL Solar System Dynamics
BODIES ORBITS EPHEMERIDES TOOLS PHYSICAL DATA DISCOVERY FAQ SITE MAP

Significant website upgrade scheduled for September 27. More details available here.

JPL Small-Body Database Browser
Search: [ help ]  
511684 (2015 BN509)
Classification: Apollo [NEO, PHA]          SPK-ID: 2511684
Ephemeris | Orbit Diagram | Orbital Elements | Mission Design | Physical Parameters | Discovery Circumstances | Close-Approach Data ]

[ show orbit diagram ]
Orbital Elements at Epoch 2459396.5 (2021-Jul-01.0) TDB
Reference: JPL 114 (heliocentric ecliptic J2000)
 Element Value Uncertainty (1-sigma)   Units 
e .5683926667185154 1.333e-07  
a 1.006577199889288 3.6744e-09 au
q .4344461009861594 1.3268e-07 au
i 4.153553246309686 5.2352e-06 deg
node 120.1106802418991 2.4863e-05 deg
peri 143.1962163233382 2.7459e-05 deg
M 71.3088851251366 3.731e-06 deg
tp 2459323.434862483400
(2021-Apr-18.93486248)
4.014e-06 TDB
period 368.8663686133555
1.01
2.0198e-06
5.53e-09
d
yr
n .9759631959761308 5.344e-09 deg/d
Q 1.578708298792416 5.7629e-09 au
  Orbit Determination Parameters
   # obs. used (total)      537  
   # delay obs. used      5  
   # Doppler obs. used      2  
   data-arc span      5553 days (15.20 yr)  
   first obs. used      2005-12-03  
   last obs. used      2021-02-15  
   planetary ephem.      DE441  
   SB-pert. ephem.      SB441-N16  
   condition code      0  
   norm. resid. RMS      .46151  
   source      ORB  
   producer      Otto Matic  
   solution date      2021-Sep-11 06:33:18  

Additional Information
 Earth MOID = .0246758 au 
 Jupiter MOID = 3.51194 au 
 T_jup = 5.891 
[ show covariance matrix ]

Ephemeris | Orbit Diagram | Orbital Elements | Mission Design | Physical Parameters | Discovery Circumstances | Close-Approach Data ]

Physical Parameter Table
Parameter Symbol Value Units Sigma Reference Notes
absolute magnitude H 20.82   n/a E2021B69  
diameter diameter 0.315 km 0.065 urn:nasa:pds:neowise_diameters_albedos::2.0[neos] (http://adsabs.harvard.edu/abs/2017AJ....154..168M)  
rotation period rot_per 5.6713 h n/a LCDB (Rev. 2020-October); Warner et al., 2009 Published Reference List:
[Warner, B.D. (2017) Minor Planet Bull. 44, 223-237.]
[Pravec, P.; Wolf, M.; Sarounova, L. (2018) http://www.asu.cas.cz/~ppravec/neo.htm]
[Warner, B.D. (2018) Minor Planet Bull. 45, 248-256.]
[Pravec, P.; Wolf, M.; Sarounova, L. (2019) http://www.asu.cas.cz/~ppravec/neo.htm]
geometric albedo albedo 0.093   0.044 urn:nasa:pds:neowise_diameters_albedos::2.0[neos] (http://adsabs.harvard.edu/abs/2017AJ....154..168M)  

511684 (2015 BN509)          Discovered 2015-Jan-22 by Mt. Lemmon Survey at Mount Lemmon
Reference: Last Updated: 2018-02-05

[ show close-approach data ]
Ephemeris | Orbit Diagram | Orbital Elements | Mission Design | Physical Parameters | Discovery Circumstances | Close-Approach Data ]
ABOUT SSD CREDITS/AWARDS PRIVACY/COPYRIGHT GLOSSARY LINKS
FirstGov 2021-Sep-22 09:43 UT
(server date/time)  
NASA Home Page
Site Manager:   Ryan S. Park
Webmaster  Alan B. Chamberlin